Snowfall_Accumulation
0.0 0.0 0.0 0.0 0.0 0.0 0.0 0.0 0.0 0.0 0.0 0.0 0.0 0.0 0.0 0.0 0.0 0.0 0.0 0.0 0.0 0.0 0.0 0.0 0.0 0.0 0.0 0.0 0.0 0.0 0.0 0.0 0.0 0.0 0.0 0.0 0.0 0.0 0.0 0.0 0.0 0.0 0.0
0.0 0.0 0.0 0.0 0.0 0.0 0.0 0.0 0.0 0.0 0.0 0.0 0.0 0.0 0.0 0.0 0.0 0.0 0.0 0.0 0.0 0.0 0.0 0.0 0.0 0.0 0.0 0.0 0.0 0.0 0.0 0.0 0.0 0.0 0.0 0.0 0.0 0.0 0.0 0.0 0.0 0.0 0.0
0.0 0.0 0.0 0.0 0.0 0.0 0.0 0.0 0.0 0.0 0.0 0.0 0.0 0.0 0.0 0.0 0.0 0.0 0.0 0.0 0.0 0.0 0.0 0.0 0.0 0.0 0.0 0.0 0.0 0.0 0.0 0.0 0.0 0.0 0.0 0.0 0.0 0.0 0.0 0.0 0.0 0.0 0.0
0.0 0.0 0.0 0.0 0.0 0.0 0.0 0.0 0.0 0.0 0.0 0.0 0.0 0.0 0.0 0.0 0.0 0.0 0.0 0.0 0.0 0.0 0.0 0.0 0.0 0.0 0.0 0.0 0.0 0.0 0.0 0.0 0.0 0.0 0.0 0.0 0.0 0.0 0.0 0.0 0.0 0.0 0.0
0.0 0.0 0.0 0.0 0.0 0.0 0.0 0.0 0.0 0.0 0.0 0.0 0.0 0.0 0.0 0.0 0.0 0.0 0.0 0.0 0.0 0.0 0.0 0.0 0.0 0.0 0.0 0.0 0.0 0.0 0.0 0.0 0.0 0.0 0.0 0.0 0.0 0.0 0.0 0.0 0.0 0.0 0.0
0.2 0.2 0.2 0.1 0.1 0.0 0.0 0.0 0.0 0.0 0.0 0.0 0.0 0.0 0.0 0.0 0.0 0.0 0.0 0.0 0.0 0.0 0.0 0.0 0.0 0.0 0.0 0.0 0.0 0.0 0.0 0.0 0.0 0.0 0.0 0.0 0.0 0.0 0.0 0.0 0.0 0.0 0.0
1.2 1.2 0.8 0.7 1.9 1.1 0.2 0.0 0.0 0.0 0.0 0.0 0.0 0.0 0.0 0.0 0.0 0.0 0.0 0.0 0.0 0.0 0.0 0.0 0.0 0.0 0.0 0.0 0.0 0.0 0.0 0.0 0.0 0.0 0.0 0.0 0.0 0.0 0.0 0.0 0.0 0.0 0.0
1.6 3.1 2.5 1.5 2.6 1.9 1.4 0.5 0.2 0.1 0.0 0.0 0.0 0.0 0.0 0.0 0.0 0.0 0.0 0.0 0.0 0.0 0.0 0.0 0.0 0.0 0.0 0.0 0.0 0.0 0.0 0.0 0.0 0.0 0.0 0.0 0.0 0.0 0.0 0.0 0.0 0.0 0.0
0.4 1.7 4.3 3.5 2.6 3.8 2.1 1.5 0.6 0.2 0.1 0.0 0.0 0.0 0.0 0.0 0.0 0.0 0.0 0.0 0.0 0.0 0.0 0.0 0.0 0.0 0.0 0.0 0.0 0.0 0.0 0.0 0.0 0.0 0.0 0.0 0.0 0.0 0.0 0.0 0.0 0.1 0.3
0.4 0.6 2.0 3.7 3.7 5.2 4.5 2.6 2.1 0.7 0.2 0.3 0.0 0.0 0.0 0.0 0.0 0.0 0.0 0.0 0.0 0.0 0.0 0.0 0.0 0.0 0.0 0.0 0.0 0.0 0.0 0.0 0.0 0.0 0.0 0.0 0.0 0.0 0.0 0.0 0.0 0.0 0.0
1.3 1.0 0.8 1.7 2.8 5.0 7.2 4.3 4.5 3.2 0.4 0.2 0.4 0.0 0.0 0.0 0.0 0.0 0.0 0.0 0.0 0.0 0.0 0.0 0.0 0.0 0.0 0.0 0.0 0.0 0.0 0.0 0.0 0.0 0.0 0.0 0.0 0.0 0.0 0.0 0.0 0.0 0.0
2.5 2.5 1.4 1.3 1.6 2.2 5.0 7.2 6.1 5.2 4.2 0.9 0.3 0.2 0.0 0.0 0.0 0.0 0.0 0.0 0.0 0.0 0.0 0.0 0.0 0.0 0.0 0.0 0.0 0.0 0.0 0.0 0.0 0.0 0.0 0.0 0.0 0.0 0.0 0.0 0.0 0.0 0.0
2.0 2.2 1.8 1.9 1.8 1.2 2.4 6.3 6.3 6.7 4.9 3.7 0.6 0.5 0.1 0.0 0.0 0.0 0.0 0.0 0.0 0.0 0.0 0.0 0.0 0.0 0.0 0.0 0.0 0.0 0.0 0.0 0.0 0.0 0.0 0.0 0.0 0.0 0.0 0.0 0.0 0.0 0.0
3.2 2.2 2.5 2.6 2.2 1.7 1.6 3.5 5.8 6.6 5.7 4.6 1.8 0.9 0.8 0.3 0.0 0.0 0.0 0.0 0.0 0.0 0.0 0.0 0.0 0.0 0.0 0.0 0.0 0.0 0.0 0.0 0.0 0.0 0.0 0.0 0.0 0.0 0.0 0.0 0.0 0.0 0.0
2.7 2.5 2.5 3.0 2.5 2.4 1.5 1.6 3.1 5.9 6.0 5.3 4.4 3.4 1.3 0.6 0.3 0.0 0.0 0.0 0.0 0.0 0.0 0.0 0.0 0.0 0.0 0.0 0.0 0.0 0.0 0.0 0.0 0.0 0.0 0.0 nan nan nan 0.0 0.0 0.0 0.0
1.7 2.3 2.4 2.8 3.0 2.8 2.6 2.2 2.6 4.2 5.8 5.7 5.1 4.4 3.1 1.4 0.5 0.2 0.1 0.0 0.0 0.0 0.0 0.0 0.0 0.0 0.0 nan nan 0.0 0.0 0.0 0.0 0.0 0.0 0.0 0.0 0.0 nan nan nan nan 0.0
1.1 2.0 2.6 3.1 3.3 3.4 3.8 3.4 3.5 3.5 4.5 5.5 5.9 4.9 4.6 3.0 1.7 0.6 0.2 0.1 0.1 0.0 0.0 0.0 0.0 0.0 0.0 nan nan nan 0.0 0.0 0.0 0.0 0.0 0.0 0.0 nan 0.0 nan nan nan nan
1.0 1.1 2.1 2.2 2.6 2.7 2.9 3.6 3.4 4.0 4.4 4.7 6.1 5.9 4.8 4.7 3.0 1.4 0.6 0.2 0.1 0.2 0.1 0.0 0.0 0.0 0.0 nan nan nan 0.0 0.0 0.0 0.0 0.0 0.0 0.0 0.0 0.0 0.0 0.0 0.0 0.0
1.1 1.8 2.2 2.8 2.5 2.7 2.4 2.7 3.7 3.8 4.8 4.6 5.2 5.9 5.8 5.4 4.8 2.9 2.0 0.7 0.4 0.2 0.2 0.0 0.1 0.0 0.0 nan nan 0.0 0.0 0.0 0.0 0.0 0.0 0.0 0.0 nan nan 0.0 0.0 0.0 0.0
2.2 2.1 1.8 2.1 1.9 2.1 2.1 2.1 2.5 4.2 4.3 4.7 5.1 5.1 6.2 5.9 6.0 4.7 3.1 1.7 0.7 0.3 0.3 0.1 0.0 nan 0.0 nan nan nan 0.1 0.0 0.1 0.0 0.0 nan 0.0 nan nan 0.0 0.0 0.0 0.0
2.0 2.0 1.5 2.4 2.3 1.6 1.7 2.1 2.1 3.0 4.0 4.0 4.4 4.7 5.2 6.4 5.6 5.9 4.2 2.2 1.3 0.5 0.2 0.3 0.1 0.1 0.0 0.0 nan nan 0.0 0.0 0.1 0.0 0.0 0.0 nan nan nan nan 0.0 0.0 0.0
0.9 1.0 1.6 1.7 1.9 1.7 1.4 1.5 2.0 2.0 2.6 3.4 3.9 4.4 4.8 5.5 5.2 5.7 5.3 3.6 1.7 1.4 0.4 0.5 0.3 0.1 0.0 nan nan nan nan nan 0.2 0.1 0.0 0.0 nan nan nan nan nan nan nan
0.6 0.4 1.2 1.0 1.2 1.7 2.1 1.9 1.4 1.8 1.8 2.4 3.3 3.6 4.2 4.7 5.6 6.3 5.8 6.2 2.3 2.6 1.7 1.1 1.1 0.5 0.1 0.1 nan nan nan nan 0.1 0.0 0.0 nan nan nan nan nan nan nan 0.1
1.1 1.0 0.9 0.4 0.4 0.7 1.4 1.9 2.0 1.3 1.9 2.5 2.8 3.3 4.1 5.2 5.2 5.6 6.0 7.0 6.9 5.3 3.1 2.2 1.7 1.3 0.9 0.5 0.3 0.3 0.2 nan 0.1 nan 0.1 nan 0.0 nan nan 0.1 0.2 0.2 0.1
1.5 1.5 1.8 2.0 0.7 0.6 0.8 1.3 1.7 1.8 2.1 2.6 3.5 4.5 4.4 5.6 6.3 6.4 9.6 9.4 6.2 8.6 11.8 5.3 3.4 3.6 2.1 1.1 1.0 1.1 1.0 0.7 0.4 nan 0.8 0.8 0.7 0.7 0.6 0.5 0.4 0.3 0.3
3.1 3.2 2.7 3.5 4.0 3.1 2.2 1.6 2.5 4.2 6.0 6.7 6.2 7.2 8.3 7.7 7.9 9.5 11.1 nan nan nan nan nan 4.9 2.9 nan nan nan nan nan nan nan 2.8 2.3 1.7 1.5 1.4 1.1 0.9 0.9 0.7 0.6
Water_Equivalent
0.00 0.00 0.00 0.00 0.00 0.00 0.00 0.00 0.00 0.00 0.00 0.00 0.00 0.00 0.00 0.00 0.00 0.00 0.00 0.00 0.00 0.00 0.00 0.00 0.00 0.00 0.00 0.00 0.00 0.00 0.00 0.00 0.00 0.00 0.00 0.00 0.00 0.00 0.00 0.00 0.00 0.00 0.00
0.00 0.00 0.00 0.00 0.00 0.00 0.00 0.00 0.00 0.00 0.00 0.00 0.00 0.00 0.00 0.00 0.00 0.00 0.00 0.00 0.00 0.00 0.00 0.00 0.00 0.00 0.00 0.00 0.00 0.00 0.00 0.00 0.00 0.00 0.00 0.00 0.00 0.00 0.00 0.00 0.00 0.00 0.00
0.00 0.00 0.00 0.00 0.00 0.00 0.00 0.00 0.00 0.00 0.00 0.00 0.00 0.00 0.00 0.00 0.00 0.00 0.00 0.00 0.00 0.00 0.00 0.00 0.00 0.00 0.00 0.00 0.00 0.00 0.00 0.00 0.00 0.00 0.00 0.00 0.00 0.00 0.00 0.00 0.00 0.00 0.00
0.00 0.00 0.00 0.00 0.00 0.00 0.00 0.00 0.00 0.00 0.00 0.00 0.00 0.00 0.00 0.00 0.00 0.00 0.00 0.00 0.00 0.00 0.00 0.00 0.00 0.00 0.00 0.00 0.00 0.00 0.00 0.00 0.00 0.00 0.00 0.00 0.00 0.00 0.00 0.00 0.00 0.00 0.00
0.00 0.00 0.00 0.00 0.00 0.00 0.00 0.00 0.00 0.00 0.00 0.00 0.00 0.00 0.00 0.00 0.00 0.00 0.00 0.00 0.00 0.00 0.00 0.00 0.00 0.00 0.00 0.00 0.00 0.00 0.00 0.00 0.00 0.00 0.00 0.00 0.00 0.00 0.00 0.01 0.00 0.00 0.00
0.03 0.03 0.04 0.03 0.03 0.00 0.00 0.00 0.00 0.00 0.00 0.00 0.00 0.00 0.00 0.00 0.00 0.00 0.00 0.00 0.00 0.00 0.00 0.00 0.00 0.00 0.00 0.00 0.00 0.00 0.00 0.00 0.00 0.00 0.00 0.00 0.00 0.00 0.00 0.00 0.00 0.00 0.00
0.20 0.20 0.13 0.11 0.33 0.29 0.03 0.00 0.00 0.00 0.00 0.00 0.00 0.00 0.00 0.00 0.00 0.00 0.00 0.00 0.00 0.00 0.00 0.00 0.00 0.00 0.00 0.00 0.00 0.00 0.00 0.00 0.00 0.00 0.00 0.00 0.00 0.00 0.00 0.00 0.00 0.00 0.00
0.25 0.43 0.36 0.22 0.50 0.34 0.34 0.09 0.04 0.01 0.00 0.00 0.00 0.00 0.00 0.00 0.00 0.00 0.00 0.00 0.00 0.00 0.00 0.00 0.00 0.00 0.00 0.00 0.00 0.00 0.00 0.00 0.00 0.00 0.00 0.00 0.00 0.00 0.00 0.00 0.00 0.01 0.00
0.06 0.23 0.68 0.53 0.40 0.70 0.37 0.24 0.12 0.03 0.02 0.00 0.00 0.00 0.00 0.00 0.00 0.00 0.00 0.00 0.00 0.00 0.00 0.00 0.00 0.00 0.00 0.00 0.00 0.00 0.00 0.00 0.00 0.00 0.00 0.00 0.00 0.00 0.00 0.00 0.00 0.02 0.09
0.07 0.10 0.27 0.52 0.62 0.92 0.85 0.49 0.42 0.13 0.04 0.09 0.00 0.00 0.00 0.00 0.00 0.00 0.00 0.00 0.00 0.00 0.00 0.00 0.00 0.00 0.00 0.00 0.00 0.00 0.00 0.00 0.00 0.00 0.00 0.00 0.00 0.00 0.00 0.00 0.00 0.00 0.02
0.17 0.14 0.11 0.23 0.40 0.78 1.26 0.70 0.73 0.52 0.08 0.04 0.10 0.00 0.00 0.00 0.00 0.00 0.00 0.00 0.00 0.00 0.00 0.00 0.00 0.00 0.00 0.00 0.00 0.00 0.00 0.00 0.00 0.00 0.00 0.00 0.00 0.00 0.00 0.00 0.00 0.00 0.00
0.29 0.28 0.18 0.16 0.19 0.33 0.72 1.10 0.91 0.85 0.74 0.15 0.05 0.05 0.00 0.00 0.00 0.00 0.00 0.00 0.00 0.00 0.00 0.00 0.00 0.00 0.00 0.00 0.00 0.00 0.00 0.00 0.01 0.00 0.00 0.00 0.00 0.00 0.00 0.00 0.00 0.00 0.00
0.22 0.23 0.21 0.20 0.19 0.15 0.33 0.90 0.86 1.09 0.84 0.70 0.09 0.07 0.02 0.00 0.00 0.00 0.00 0.00 0.00 0.00 0.00 0.00 0.00 0.00 0.00 0.00 0.00 0.00 0.00 0.00 0.00 0.00 0.00 0.00 0.00 0.00 0.00 0.00 0.00 0.00 0.00
0.28 0.21 0.25 0.27 0.23 0.18 0.19 0.44 0.77 0.99 0.89 0.78 0.29 0.13 0.11 0.06 0.01 0.00 0.00 0.00 0.00 0.00 0.00 0.00 0.00 0.00 0.00 0.00 0.00 0.00 0.00 0.00 0.00 0.00 0.00 0.00 0.00 0.00 0.00 0.00 0.00 0.00 0.00
0.23 0.21 0.23 0.29 0.26 0.26 0.17 0.22 0.39 0.78 0.89 0.85 0.74 0.55 0.19 0.09 0.05 0.01 0.00 0.00 0.00 0.00 0.00 0.00 0.00 0.00 0.00 0.00 0.00 0.00 0.00 0.00 0.00 0.00 0.00 0.00 nan nan nan 0.00 0.00 0.00 0.00
0.16 0.20 0.21 0.25 0.28 0.29 0.28 0.26 0.32 0.52 0.80 0.85 0.82 0.74 0.51 0.20 0.07 0.03 0.01 0.00 0.00 0.00 0.00 0.00 0.00 0.00 0.00 nan nan 0.00 0.00 0.00 0.00 0.00 0.00 0.00 0.00 0.00 nan nan nan nan 0.00
0.10 0.18 0.22 0.27 0.31 0.34 0.41 0.37 0.43 0.46 0.57 0.72 0.85 0.74 0.71 0.46 0.24 0.08 0.03 0.01 0.02 0.01 0.00 0.00 0.00 0.00 0.00 nan nan nan 0.00 0.00 0.00 0.00 0.00 0.00 0.00 nan 0.00 nan nan nan nan
0.09 0.10 0.18 0.20 0.24 0.28 0.30 0.40 0.41 0.52 0.55 0.59 0.77 0.83 0.72 0.72 0.42 0.19 0.07 0.03 0.03 0.04 0.02 0.01 0.00 0.00 0.00 nan nan nan 0.00 0.00 0.00 0.00 0.00 0.00 0.00 0.00 0.00 0.00 0.00 0.00 0.00
0.11 0.17 0.20 0.26 0.24 0.27 0.25 0.29 0.41 0.45 0.59 0.58 0.63 0.73 0.83 0.79 0.73 0.40 0.28 0.09 0.05 0.03 0.04 0.01 0.01 0.01 0.00 nan nan 0.00 0.00 0.00 0.00 0.00 0.00 0.00 0.00 nan nan 0.00 0.00 0.00 0.00
0.18 0.17 0.16 0.19 0.18 0.21 0.22 0.21 0.26 0.44 0.46 0.55 0.64 0.65 0.84 0.85 0.87 0.71 0.47 0.23 0.10 0.03 0.07 0.02 0.01 nan 0.00 nan nan nan 0.02 0.00 0.03 0.00 0.00 nan 0.00 nan nan 0.00 0.00 0.00 0.00
0.17 0.18 0.14 0.22 0.22 0.17 0.18 0.21 0.21 0.29 0.42 0.45 0.54 0.62 0.71 0.86 0.84 0.96 0.69 0.33 0.18 0.08 0.05 0.07 0.01 0.01 0.00 0.00 nan nan 0.01 0.01 0.03 0.00 0.00 0.00 nan nan nan nan 0.00 0.01 0.00
0.07 0.09 0.13 0.15 0.18 0.17 0.14 0.15 0.19 0.20 0.27 0.37 0.43 0.52 0.65 0.78 0.77 0.83 0.90 0.58 0.23 0.21 0.06 0.11 0.08 0.02 0.01 nan nan nan nan nan 0.05 0.02 0.00 0.00 nan nan nan nan nan nan nan
0.06 0.04 0.11 0.09 0.11 0.17 0.20 0.17 0.14 0.19 0.18 0.25 0.36 0.41 0.53 0.63 0.89 0.89 0.85 1.04 0.37 0.44 0.29 0.25 0.26 0.16 0.03 0.02 nan nan nan nan 0.04 0.00 0.00 nan nan nan nan nan nan nan 0.05
0.11 0.10 0.10 0.04 0.04 0.07 0.14 0.19 0.21 0.14 0.19 0.25 0.30 0.37 0.46 0.67 0.70 0.89 0.94 1.12 1.24 0.97 0.54 0.44 0.39 0.33 0.23 0.14 0.07 0.07 0.07 nan 0.03 nan 0.04 nan 0.01 nan nan 0.03 0.06 0.06 0.03
0.14 0.16 0.19 0.21 0.07 0.06 0.08 0.14 0.19 0.19 0.21 0.28 0.39 0.53 0.55 0.69 0.81 0.91 1.50 1.57 1.05 1.53 2.21 1.01 0.71 0.74 0.50 0.31 0.25 0.29 0.22 0.17 0.11 nan 0.20 0.25 0.21 0.21 0.21 0.18 0.14 0.13 0.12
0.29 0.31 0.27 0.35 0.42 0.33 0.23 0.17 0.29 0.48 0.66 0.74 0.72 0.83 1.03 0.99 1.07 1.36 1.75 nan nan nan nan nan 1.01 0.69 nan nan nan nan nan nan nan 0.69 0.60 0.47 0.40 0.37 0.29 0.25 0.26 0.21 0.19
SL_Ratio
nan nan nan nan nan nan nan nan nan nan nan nan nan nan nan nan nan nan nan nan nan nan nan nan nan nan nan nan nan nan nan nan nan nan nan nan nan nan nan nan nan nan nan
nan nan nan nan nan nan nan nan nan nan nan nan nan nan nan nan nan nan nan nan nan nan nan nan nan nan nan nan nan nan nan nan nan nan nan nan nan nan nan nan nan nan nan
nan nan nan nan nan nan nan nan nan nan nan nan nan nan nan nan nan nan nan nan nan nan nan nan nan nan nan nan nan nan nan nan nan nan nan nan nan nan nan nan nan nan nan
nan nan nan nan nan nan nan nan nan nan nan nan nan nan nan nan nan nan nan nan nan nan nan nan nan nan nan nan nan nan nan nan nan nan nan nan nan nan nan nan nan nan nan
nan nan 5.0 nan nan nan nan nan nan nan nan nan nan nan nan nan nan nan nan nan nan nan nan nan nan nan nan nan nan nan nan nan nan nan nan nan nan nan nan 3.0 nan nan nan
5.1 5.0 5.1 5.0 4.3 nan nan nan nan nan nan nan nan nan nan nan nan nan nan nan nan nan nan nan nan nan nan nan nan nan nan nan nan nan nan nan nan nan nan nan nan nan nan
6.2 6.1 6.1 5.9 5.8 3.9 4.6 4.0 nan nan nan nan nan nan nan nan nan nan nan nan nan nan nan nan nan nan nan nan nan nan nan nan nan nan nan nan nan nan nan nan nan nan nan
6.4 7.2 7.0 7.1 5.2 5.7 4.3 5.2 5.2 4.8 nan nan nan nan nan nan nan nan nan nan nan nan nan nan nan nan nan nan nan nan nan nan nan nan nan nan nan nan nan nan 2.5 3.2 nan
6.5 7.4 6.4 6.6 6.5 5.5 5.7 6.2 5.2 5.0 4.0 nan nan nan nan nan nan nan nan nan nan nan nan nan nan nan nan nan nan nan nan nan nan nan nan nan nan nan nan nan nan 2.8 3.6
6.3 6.3 7.4 7.0 6.0 5.6 5.2 5.2 5.0 5.8 5.1 3.5 5.0 nan nan nan nan nan nan nan nan nan nan nan nan nan nan nan nan nan nan nan nan nan nan nan nan nan nan nan nan nan 2.9
7.6 7.3 7.3 7.7 7.0 6.4 5.7 6.1 6.2 6.2 5.4 5.4 3.9 2.5 nan nan nan nan nan nan nan nan nan nan nan nan nan nan nan nan nan 5.0 nan nan nan nan nan nan nan nan nan nan nan
8.8 9.1 8.2 8.1 8.8 6.8 6.9 6.6 6.6 6.0 5.6 5.9 5.6 4.6 nan nan nan nan nan nan nan nan nan nan nan nan nan nan nan nan nan 5.0 5.6 5.0 nan nan nan nan nan nan nan nan nan
9.3 9.6 8.8 9.3 9.4 8.3 7.2 7.0 7.3 6.2 5.8 5.2 6.8 6.1 5.2 nan nan nan nan nan nan nan nan nan nan nan nan nan nan nan nan nan nan 5.0 nan nan nan 5.0 nan nan nan nan nan
11.3 10.7 10.0 9.5 9.3 9.2 8.5 7.9 7.5 6.7 6.5 5.8 6.2 7.5 6.9 6.2 5.6 nan nan nan nan nan nan nan nan nan nan nan nan nan nan nan nan nan nan nan nan nan nan nan nan nan 3.0
12.1 11.7 11.2 10.6 9.4 9.2 8.7 7.5 8.0 7.6 6.7 6.2 6.0 6.1 6.9 6.9 6.2 6.0 nan nan nan nan nan nan nan nan nan nan nan nan nan nan nan nan nan nan nan nan nan nan nan nan 2.5
10.7 11.3 11.5 10.8 10.4 9.7 9.2 8.4 8.1 8.1 7.2 6.7 6.3 6.0 6.0 7.1 7.6 6.4 6.3 3.6 3.3 nan nan nan nan nan nan nan nan nan nan nan nan nan nan nan nan nan nan nan nan nan nan
10.4 11.6 12.0 11.4 10.7 10.1 9.4 9.1 8.3 7.7 8.0 7.6 7.0 6.6 6.5 6.5 6.9 7.6 7.0 6.7 3.6 3.0 3.8 5.0 nan nan nan nan nan nan nan nan nan nan nan nan nan nan nan nan nan nan nan
11.3 11.6 11.8 11.2 10.5 9.7 9.6 9.0 8.2 7.8 7.9 8.0 8.0 7.1 6.6 6.6 7.0 7.1 7.8 6.9 5.4 4.2 4.8 4.4 5.0 nan nan nan nan nan nan nan nan nan nan nan nan nan nan nan nan nan nan
10.1 11.0 11.3 10.8 10.2 9.9 9.6 9.5 9.0 8.4 8.2 7.9 8.3 8.0 7.0 6.8 6.6 7.1 7.1 7.6 7.8 4.5 4.8 4.4 4.5 4.4 nan nan nan nan nan nan nan nan nan nan nan nan nan nan nan nan nan
12.2 12.1 10.9 10.9 10.2 9.6 9.5 9.8 9.7 9.4 9.3 8.6 8.0 8.0 7.4 6.9 6.8 6.5 6.6 7.3 7.3 7.5 4.0 4.7 4.6 nan 3.8 nan nan nan 2.6 5.0 2.5 nan nan nan nan nan nan nan nan 5.0 5.0
12.2 11.0 11.2 11.2 10.5 9.6 9.6 10.2 10.0 10.3 9.4 9.0 8.2 7.6 7.3 7.4 6.6 6.2 6.1 6.6 7.3 7.0 4.9 4.6 5.0 4.7 4.2 nan nan nan 2.5 2.9 3.1 7.5 10.0 nan nan nan nan nan nan 6.3 nan
12.5 11.9 11.8 11.4 10.3 9.7 9.9 10.3 10.6 10.0 9.5 9.2 8.9 8.4 7.3 7.0 6.7 6.9 5.9 6.2 7.4 6.9 5.9 4.8 3.8 4.4 4.5 nan nan nan nan nan 3.0 3.1 nan nan nan nan nan nan nan nan nan
10.7 11.1 11.6 11.4 10.4 10.1 10.1 10.8 9.8 9.3 9.7 9.5 9.3 8.9 8.0 7.4 6.3 7.0 6.8 6.0 6.3 5.9 5.9 4.5 4.1 3.4 3.6 3.9 nan nan nan nan 3.3 6.7 5.0 nan nan nan nan nan nan nan 2.5
10.1 9.8 9.9 11.0 11.1 10.3 10.1 10.1 9.5 9.3 10.1 9.8 9.3 8.9 8.9 7.8 7.3 6.3 6.3 6.2 5.5 5.5 5.7 5.1 4.4 4.0 3.9 3.6 3.4 3.8 3.3 nan 4.2 nan 2.9 nan 4.0 nan nan 2.5 2.5 2.5 2.6
10.1 9.4 9.7 9.6 9.7 9.3 9.7 9.2 9.2 9.4 9.9 9.6 9.0 8.5 8.1 8.1 7.7 7.0 6.4 6.0 5.9 5.6 5.4 5.2 4.8 4.9 4.2 3.6 4.0 4.0 4.4 4.3 4.2 nan 3.9 3.4 3.3 3.3 3.0 2.9 2.7 2.7 2.7
10.6 10.3 10.1 9.9 9.5 9.2 9.4 9.3 8.6 8.8 9.1 9.1 8.7 8.6 8.0 7.8 7.4 7.0 6.3 nan nan nan nan nan 4.8 4.1 nan nan nan nan nan nan nan 4.1 3.9 3.7 3.8 3.9 3.6 3.7 3.5 3.1 3.1